When you browse on this site, cookies collect data to enhance your experience and personalize the content and advertising you see.
Visit our Privacy Policy to learn more. By continuing to use the site, you agree to this use of cookies and data.
  • In Austria
  • List of Countries
  • For 7 days
  • Water Temperature
  • Weather Map
  • News
  • Weather Widgets
  • user-avatar
    Login

    Hourly Weather Medina

    Today, 12 December, Thursday

    Time Temperature Precipitation Wind Pressure Humidity
    00:00 +23°C° 0 mm 1 mps 712 mmHg 83%
    01:00 +23°C° 0 mm 1 mps 712 mmHg 83%
    02:00 +23°C° 0 mm 1 mps 712 mmHg 83%
    03:00 +23°C° 0 mm 1 mps 712 mmHg 82%
    04:00 +23°C° 0 mm 1 mps 712 mmHg 81%
    05:00 +23°C° 0 mm 1 mps 712 mmHg 81%
    06:00 +22°C° 0 mm 0 mps 713 mmHg 80%
    07:00 +23°C° 0 mm 0 mps 713 mmHg 79%
    08:00 +26°C° 0 mm 1 mps 713 mmHg 74%
    09:00 +28°C° 0 mm 1 mps 714 mmHg 69%
    10:00 +30°C° 0 mm 1 mps 714 mmHg 64%
    11:00 +30°C° 0.3 mm 1 mps 713 mmHg 66%
    12:00 +30°C° 0.3 mm 1 mps 712 mmHg 68%
    13:00 +30°C° 0.3 mm 1 mps 711 mmHg 70%
    14:00 +30°C° 0.2 mm 1 mps 711 mmHg 72%
    15:00 +29°C° 0.2 mm 1 mps 710 mmHg 73%
    16:00 +27°C° 0.2 mm 0 mps 710 mmHg 75%
    17:00 +28°C° 0.4 mm 1 mps 710 mmHg 79%
    18:00 +27°C° 0.4 mm 1 mps 710 mmHg 83%
    19:00 +25°C° 0.4 mm 1 mps 711 mmHg 87%
    20:00 +25°C° 1 mm 1 mps 711 mmHg 89%
    21:00 +25°C° 1 mm 1 mps 712 mmHg 91%
    22:00 +24°C° 1 mm 1 mps 713 mmHg 94%
    23:00 +24°C° 1.6 mm 1 mps 713 mmHg 94%

    Tomorrow, 13 December, Friday

    Time Temperature Precipitation Wind Pressure Humidity
    00:00 +24°C° 1.6 mm 1 mps 712 mmHg 95%
    01:00 +24°C° 1.6 mm 1 mps 712 mmHg 95%
    02:00 +23°C° 0.2 mm 1 mps 711 mmHg 95%
    03:00 +23°C° 0.2 mm 1 mps 711 mmHg 94%
    04:00 +23°C° 0.2 mm 1 mps 711 mmHg 94%
    05:00 +23°C° 0 mm 1 mps 712 mmHg 93%
    06:00 +24°C° 0 mm 1 mps 712 mmHg 92%
    07:00 +22°C° 0 mm 0 mps 713 mmHg 91%
    08:00 +25°C° 0.4 mm 1 mps 713 mmHg 88%
    09:00 +27°C° 0.4 mm 1 mps 713 mmHg 86%
    10:00 +28°C° 0.4 mm 1 mps 714 mmHg 83%
    11:00 +28°C° 1 mm 1 mps 713 mmHg 85%
    12:00 +28°C° 1 mm 1 mps 712 mmHg 86%
    13:00 +28°C° 1 mm 1 mps 711 mmHg 87%
    14:00 +28°C° 1.2 mm 1 mps 710 mmHg 88%
    15:00 +28°C° 1.2 mm 1 mps 710 mmHg 89%
    16:00 +25°C° 1.2 mm 0 mps 710 mmHg 90%
    17:00 +26°C° 0.6 mm 1 mps 710 mmHg 91%
    18:00 +25°C° 0.6 mm 1 mps 711 mmHg 92%
    19:00 +24°C° 0.6 mm 1 mps 711 mmHg 94%
    20:00 +24°C° 2.3 mm 1 mps 712 mmHg 94%
    21:00 +24°C° 2.3 mm 1 mps 712 mmHg 95%
    22:00 +24°C° 2.3 mm 1 mps 713 mmHg 96%
    23:00 +24°C° 2.1 mm 1 mps 713 mmHg 96%

    Day after tomorrow, 14 December, Saturday

    Time Temperature Precipitation Wind Pressure Humidity
    00:00 +24°C° 2.1 mm 1 mps 712 mmHg 96%
    01:00 +24°C° 2.1 mm 1 mps 712 mmHg 96%
    02:00 +23°C° 0.2 mm 1 mps 712 mmHg 95%
    03:00 +23°C° 0.2 mm 1 mps 712 mmHg 94%
    04:00 +23°C° 0.2 mm 1 mps 712 mmHg 93%
    05:00 +24°C° 0 mm 1 mps 712 mmHg 92%
    06:00 +22°C° 0 mm 0 mps 713 mmHg 92%
    07:00 +22°C° 0 mm 0 mps 713 mmHg 91%
    08:00 +24°C° 0.1 mm 0 mps 714 mmHg 86%
    09:00 +27°C° 0.1 mm 1 mps 714 mmHg 82%
    10:00 +28°C° 0.1 mm 1 mps 714 mmHg 78%
    11:00 +28°C° 0.5 mm 1 mps 714 mmHg 80%
    12:00 +28°C° 0.5 mm 1 mps 713 mmHg 82%
    13:00 +26°C° 0.5 mm 0 mps 712 mmHg 84%
    14:00 +26°C° 1 mm 0 mps 711 mmHg 86%
    15:00 +25°C° 1 mm 0 mps 711 mmHg 89%
    16:00 +25°C° 1 mm 0 mps 711 mmHg 91%
    17:00 +26°C° 0.8 mm 1 mps 711 mmHg 92%
    18:00 +25°C° 0.8 mm 1 mps 712 mmHg 93%
    19:00 +24°C° 0.8 mm 1 mps 712 mmHg 94%
    20:00 +24°C° 1.3 mm 1 mps 713 mmHg 94%
    21:00 +24°C° 1.3 mm 1 mps 713 mmHg 94%
    22:00 +24°C° 1.3 mm 1 mps 714 mmHg 94%
    23:00 +24°C° 1.3 mm 1 mps 713 mmHg 94%

    15 December, Sunday

    Time Temperature Precipitation Wind Pressure Humidity
    00:00 +24°C° 1.3 mm 1 mps 713 mmHg 95%
    01:00 +22°C° 1.3 mm 0 mps 713 mmHg 95%
    02:00 +21°C° 0.9 mm 0 mps 713 mmHg 95%
    03:00 +21°C° 0.9 mm 0 mps 713 mmHg 95%
    04:00 +21°C° 0.9 mm 0 mps 713 mmHg 96%
    05:00 +21°C° 0.4 mm 0 mps 713 mmHg 95%
    06:00 +22°C° 0.4 mm 0 mps 714 mmHg 95%
    07:00 +22°C° 0.4 mm 0 mps 714 mmHg 95%
    08:00 +25°C° 0.5 mm 1 mps 715 mmHg 93%
    09:00 +26°C° 0.5 mm 1 mps 715 mmHg 91%
    10:00 +27°C° 0.5 mm 1 mps 715 mmHg 90%
    11:00 +27°C° 1.5 mm 1 mps 714 mmHg 90%
    12:00 +28°C° 1.5 mm 1 mps 713 mmHg 90%
    13:00 +28°C° 1.5 mm 1 mps 713 mmHg 90%
    14:00 +28°C° 1.6 mm 1 mps 712 mmHg 91%
    15:00 +25°C° 1.6 mm 0 mps 712 mmHg 92%
    16:00 +25°C° 1.6 mm 0 mps 711 mmHg 92%
    17:00 +24°C° 0.5 mm 0 mps 712 mmHg 93%
    18:00 +25°C° 0.5 mm 1 mps 712 mmHg 93%
    19:00 +24°C° 0.5 mm 1 mps 712 mmHg 94%
    20:00 +24°C° 0.6 mm 1 mps 713 mmHg 94%
    21:00 +23°C° 0.6 mm 1 mps 713 mmHg 94%
    22:00 +23°C° 0.6 mm 1 mps 714 mmHg 94%
    23:00 +23°C° 0.5 mm 1 mps 713 mmHg 94%

    16 December, Monday

    Time Temperature Precipitation Wind Pressure Humidity
    00:00 +23°C° 0.5 mm 1 mps 713 mmHg 94%
    01:00 +23°C° 0.5 mm 1 mps 713 mmHg 94%
    02:00 +23°C° 0 mm 1 mps 713 mmHg 93%
    03:00 +23°C° 0 mm 1 mps 712 mmHg 93%
    04:00 +23°C° 0 mm 1 mps 712 mmHg 92%
    05:00 +23°C° 0 mm 1 mps 713 mmHg 92%
    06:00 +24°C° 0 mm 1 mps 713 mmHg 91%
    07:00 +22°C° 0 mm 0 mps 714 mmHg 90%
    08:00 +26°C° 0 mm 1 mps 714 mmHg 84%
    09:00 +27°C° 0 mm 1 mps 714 mmHg 78%
    10:00 +29°C° 0 mm 1 mps 715 mmHg 71%
    11:00 +29°C° 0.2 mm 1 mps 714 mmHg 73%
    12:00 +29°C° 0.2 mm 1 mps 713 mmHg 75%
    13:00 +29°C° 0.2 mm 1 mps 712 mmHg 77%
    14:00 +29°C° 0.1 mm 1 mps 711 mmHg 78%
    15:00 +29°C° 0.1 mm 1 mps 711 mmHg 78%
    16:00 +29°C° 0.1 mm 1 mps 710 mmHg 78%
    17:00 +27°C° 0 mm 1 mps 710 mmHg 82%
    18:00 +26°C° 0 mm 1 mps 711 mmHg 85%
    19:00 +25°C° 0 mm 1 mps 711 mmHg 88%
    20:00 +24°C° 0.2 mm 1 mps 712 mmHg 89%
    21:00 +24°C° 0.2 mm 1 mps 712 mmHg 90%
    22:00 +23°C° 0.2 mm 1 mps 713 mmHg 91%
    23:00 +23°C° 0.2 mm 1 mps 713 mmHg 91%

    17 December, Tuesday

    Time Temperature Precipitation Wind Pressure Humidity
    00:00 +23°C° 0.2 mm 1 mps 712 mmHg 91%
    01:00 +22°C° 0.2 mm 1 mps 712 mmHg 91%
    02:00 +22°C° 0 mm 1 mps 712 mmHg 90%
    03:00 +22°C° 0 mm 1 mps 711 mmHg 89%
    04:00 +22°C° 0 mm 1 mps 711 mmHg 88%
    05:00 +23°C° 0 mm 1 mps 712 mmHg 86%
    06:00 +23°C° 0 mm 1 mps 712 mmHg 83%
    07:00 +24°C° 0 mm 1 mps 713 mmHg 81%
    08:00 +26°C° 0 mm 1 mps 713 mmHg 75%
    09:00 +28°C° 0 mm 1 mps 713 mmHg 69%
    10:00 +30°C° 0 mm 2 mps 713 mmHg 63%
    11:00 +31°C° 0 mm 2 mps 713 mmHg 62%
    12:00 +31°C° 0 mm 2 mps 712 mmHg 61%
    13:00 +31°C° 0 mm 2 mps 711 mmHg 60%
    14:00 +31°C° 0.1 mm 2 mps 710 mmHg 65%
    15:00 +30°C° 0.1 mm 1 mps 709 mmHg 69%
    16:00 +30°C° 0.1 mm 1 mps 709 mmHg 74%
    17:00 +28°C° 0.1 mm 1 mps 709 mmHg 77%
    18:00 +26°C° 0.1 mm 1 mps 710 mmHg 81%
    19:00 +25°C° 0.1 mm 2 mps 710 mmHg 84%
    20:00 +24°C° 0 mm 1 mps 711 mmHg 83%
    21:00 +24°C° 0 mm 1 mps 711 mmHg 83%
    22:00 +24°C° 0 mm 1 mps 712 mmHg 82%
    23:00 +23°C° 0 mm 1 mps 712 mmHg 82%
    Show more